This is the latest recevied weather packets stored in our database for station/object KC3ROB-13. If no packets are shown the sender has not sent any weather packets the latest 1 day(s).
| Time | Temp. | Humidity | Pressure | Rain* | Wind** | Luminosity | Snow |
|---|---|---|---|---|---|---|---|
| 1777993212 | 22.22° C | 100% | 1006.1 hPa | 0 mm | 0 m/s | - | - |
| 1777992612 | 22.22° C | 100% | 1005.8 hPa | 0 mm | 0 m/s | - | - |
| 1777992012 | 21.67° C | 100% | 1006.1 hPa | 0 mm | 0 m/s | - | - |
| 1777991412 | 21.67° C | 100% | 1006.1 hPa | 0 mm | 0 m/s | - | - |
| 1777990812 | 21.67° C | 100% | 1006.1 hPa | 0 mm | 0 m/s | - | - |
| 1777990212 | 21.67° C | 100% | 1006.1 hPa | 0 mm | 0 m/s | - | - |
| 1777989612 | 21.11° C | 100% | 1006.1 hPa | 0 mm | 0 m/s | - | - |
| 1777989014 | 21.11° C | 100% | 1006.1 hPa | 0 mm | 0 m/s | - | - |
| 1777988412 | 21.67° C | 100% | 1006.1 hPa | 0 mm | 0 m/s | - | - |
| 1777987813 | 21.11° C | 100% | 1006.4 hPa | 0 mm | 0 m/s | - | - |
| 1777987212 | 20.56° C | 100% | 1006.4 hPa | 0 mm | 0 m/s | - | - |
| 1777986612 | 20° C | 100% | 1006.4 hPa | 0 mm | 0 m/s | - | - |
| 1777986012 | 19.44° C | 100% | 1006.1 hPa | 0 mm | 0 m/s | - | - |
| 1777985412 | 19.44° C | 100% | 1006.1 hPa | 0 mm | 0 m/s | - | - |
| 1777984812 | 18.89° C | 100% | 1006.1 hPa | 0 mm | 0 m/s | - | - |
| 1777984212 | 18.33° C | 100% | 1006.1 hPa | 0 mm | 0 m/s | - | - |
| 1777983612 | 17.78° C | 100% | 1006.1 hPa | 0 mm | 0 m/s | - | - |
| 1777983015 | 17.78° C | 100% | 1006.1 hPa | 0 mm | 0 m/s | - | - |
| 1777982412 | 17.22° C | 100% | 1006.1 hPa | 0 mm | 0 m/s | - | - |
| 1777981813 | 16.67° C | 100% | 1006.1 hPa | 0 mm | 0 m/s | - | - |
| 1777981212 | 16.67° C | 100% | 1006.1 hPa | 0 mm | 0 m/s | - | - |
| 1777980613 | 16.11° C | 100% | 1005.8 hPa | 0 mm | 0 m/s | - | - |
| 1777980012 | 15.56° C | 100% | 1005.8 hPa | 0 mm | 0 m/s | - | - |
| 1777979413 | 15.56° C | 100% | 1005.8 hPa | 0 mm | 0 m/s | - | - |
| 1777978813 | 15.56° C | 100% | 1005.4 hPa | 0 mm | 0 m/s | - | - |
* Rain latest hour (hover to see other rain measurements)
** Current wind speed in m/s (hover to see current wind gust speed)